Location: ?????????
(41.2286°N, 23.0068°E)
Time: 09:06:29
(UTC+00:00)

CZ-2C R/B - Pass Details

Date: 08 November 2025
Orbit: 664 x 773 km, 98.4° (Epoch: 04 December)

Event Time Altitude Azimuth Distance (km) Brightness Sun altitude
Rises 04:15:15 0° 351° (N) 3,186 5.5 -10.2°
Reaches altitude 10° 04:19:14 10° 319° (NW) 2,282 4.5 -9.5°
Maximum altitude 04:20:46 11° 301° (WNW) 2,192 4.3 -9.2°
Enters shadow 04:21:28 11° 293° (WNW) 2,215 4.2 -9.1°
